マクノート彗星

191P/McNaught (2021)

English version
Home page
Updated on February 21, 2021

---------------------------------------------------------------------

・ プロフィール

・ 軌道要素

Epoch 2021 Mar. 7.0 TT = JDT 2459280.5
T 2021 Mar. 20.09749 TT                                 Rudenko
q   2.2321603            (2000.0)            P               Q
n   0.14226250     Peri.  284.00329     +0.91422229     -0.37556773
a   3.6342023      Node    98.23220     +0.40500381     +0.83483619
e   0.3857909      Incl.    8.84278     +0.01302037     +0.40248902
P   6.93
From 769 observations 2000 Aug. 5-2021 Jan. 2, mean residual 1".1.

・ 光度変化

        m1 = 9.0 + 5 logΔ + 20.0 log r(t - 70)

---------------------------------------------------------------------

軌道要素はM.P.E.C. 2021-B143に掲載されたものです。
光度グラフはComet for Windowsで作成したものです。

---------------------------------------------------------------------

Copyright(C) Seiichi Yoshida (comet@aerith.net). All rights reserved.